Station Historical Data
Daily Summary for May 8, 2017 Units:  English    Metric   Both
Next Day »
Daily Weekly Monthly Yearly Custom
  High: Low: Average:
Temperature: 69.7 °F 50.1 °F 59.5 °F
Dew Point: 55.4 °F 45.2 °F 50.3 °F
Humidity: 87% 54% 73%
Wind Speed: 9.0mph 0.0mph 0.9mph
Wind Gust: 11.0mph - -
Wind- - WSW
Pressure: 29.96 in 29.86 in -
Precipitation: 0.00 in    
Historical Graphs
 
 
Tabular Data for May 8, 2017
Time Temperature Dew Point Pressure Wind Wind Speed Wind Gust Humidity Rainfall Rate (Hourly) solar Conditions
00:01 53.0 °F 48.3 °F 29.93 in Calm     84% 0.00 in 0.00 W/m2
00:06 53.0 °F 48.3 °F 29.93 in Calm     84% 0.00 in 0.00 W/m2
00:11 53.0 °F 48.3 °F 29.93 in Calm     84% 0.00 in 0.00 W/m2
00:16 52.9 °F 48.2 °F 29.94 in Calm     84% 0.00 in 0.00 W/m2
00:21 52.8 °F 48.1 °F 29.94 in Calm     84% 0.00 in 0.00 W/m2
00:26 52.7 °F 48.0 °F 29.94 in Calm     84% 0.00 in 0.00 W/m2
00:31 52.6 °F 47.9 °F 29.93 in Calm     84% 0.00 in 0.00 W/m2
00:36 52.4 °F 48.0 °F 29.93 in Calm     85% 0.00 in 0.00 W/m2
00:41 52.2 °F 47.8 °F 29.93 in Calm     85% 0.00 in 0.00 W/m2
00:46 52.1 °F 47.7 °F 29.93 in Calm     85% 0.00 in 0.00 W/m2
00:51 52.0 °F 47.6 °F 29.93 in Calm     85% 0.00 in 0.00 W/m2
00:56 52.0 °F 47.6 °F 29.93 in Calm     85% 0.00 in 0.00 W/m2
01:01 52.0 °F 47.6 °F 29.93 in Calm     85% 0.00 in 0.00 W/m2
01:06 52.0 °F 47.6 °F 29.93 in Calm     85% 0.00 in 0.00 W/m2
01:11 51.9 °F 47.8 °F 29.93 in Calm     86% 0.00 in 0.00 W/m2
01:16 51.9 °F 47.8 °F 29.93 in Calm     86% 0.00 in 0.00 W/m2
01:21 51.9 °F 47.8 °F 29.93 in Calm     86% 0.00 in 0.00 W/m2
01:26 51.9 °F 47.8 °F 29.92 in Calm     86% 0.00 in 0.00 W/m2
01:31 51.8 °F 47.8 °F 29.92 in Calm     86% 0.00 in 0.00 W/m2
01:36 51.8 °F 47.8 °F 29.92 in Calm     86% 0.00 in 0.00 W/m2
01:41 51.7 °F 47.7 °F 29.92 in Calm     86% 0.00 in 0.00 W/m2
01:46 51.7 °F 47.7 °F 29.92 in Calm     86% 0.00 in 0.00 W/m2
01:51 51.7 °F 47.7 °F 29.91 in Calm     86% 0.00 in 0.00 W/m2
01:56 51.7 °F 47.7 °F 29.91 in Calm     86% 0.00 in 0.00 W/m2
02:01 51.7 °F 47.7 °F 29.91 in Calm     86% 0.00 in 0.00 W/m2
02:06 51.7 °F 47.7 °F 29.91 in Calm     86% 0.00 in 0.00 W/m2
02:11 51.7 °F 47.7 °F 29.91 in Calm     86% 0.00 in 0.00 W/m2
02:16 51.7 °F 47.7 °F 29.91 in Calm     86% 0.00 in 0.00 W/m2
02:21 51.7 °F 47.7 °F 29.91 in Calm     86% 0.00 in 0.00 W/m2
02:26 51.7 °F 47.3 °F 29.91 in Calm     85% 0.00 in 0.00 W/m2
02:31 51.7 °F 47.3 °F 29.91 in Calm     85% 0.00 in 0.00 W/m2
02:36 51.6 °F 47.2 °F 29.91 in Calm     85% 0.00 in 0.00 W/m2
02:41 51.6 °F 47.2 °F 29.91 in Calm     85% 0.00 in 0.00 W/m2
02:46 51.5 °F 47.2 °F 29.91 in Calm     85% 0.00 in 0.00 W/m2
02:51 51.5 °F 47.2 °F 29.91 in Calm     85% 0.00 in 0.00 W/m2
02:56 51.5 °F 47.2 °F 29.91 in Calm     85% 0.00 in 0.00 W/m2
03:01 51.5 °F 47.2 °F 29.91 in Calm     85% 0.00 in 0.00 W/m2
03:06 51.4 °F 47.0 °F 29.91 in Calm     85% 0.00 in 0.00 W/m2
03:12 51.4 °F 46.7 °F 29.92 in Calm   1.0 mph 84% 0.00 in 0.00 W/m2
03:17 51.4 °F 46.7 °F 29.92 in ESE 1.0 mph 2.0 mph 84% 0.00 in 0.00 W/m2
03:22 51.3 °F 46.6 °F 29.92 in Calm   2.0 mph 84% 0.00 in 0.00 W/m2
03:26 51.3 °F 46.6 °F 29.92 in ESE 1.0 mph 1.0 mph 84% 0.00 in 0.00 W/m2
03:32 51.4 °F 46.7 °F 29.92 in ESE 1.0 mph 2.0 mph 84% 0.00 in 0.00 W/m2
03:37 51.3 °F 46.6 °F 29.93 in Calm     84% 0.00 in 0.00 W/m2
03:42 51.3 °F 46.3 °F 29.93 in Calm     83% 0.00 in 0.00 W/m2
03:47 51.3 °F 46.6 °F 29.93 in Calm     84% 0.00 in 0.00 W/m2
03:52 51.2 °F 46.5 °F 29.93 in Calm     84% 0.00 in 0.00 W/m2
03:57 51.2 °F 46.2 °F 29.93 in Calm     83% 0.00 in 0.00 W/m2
04:02 51.1 °F 46.1 °F 29.93 in Calm   1.0 mph 83% 0.00 in 0.00 W/m2
04:07 51.0 °F 46.0 °F 29.93 in Calm     83% 0.00 in 0.00 W/m2
04:12 51.0 °F 46.0 °F 29.93 in Calm     83% 0.00 in 0.00 W/m2
04:17 50.9 °F 45.9 °F 29.93 in Calm   1.0 mph 83% 0.00 in 0.00 W/m2
04:22 50.8 °F 45.8 °F 29.93 in Calm   2.0 mph 83% 0.00 in 0.00 W/m2
04:27 50.8 °F 46.2 °F 29.93 in Calm     84% 0.00 in 0.00 W/m2
04:32 50.7 °F 46.0 °F 29.93 in Calm     84% 0.00 in 0.00 W/m2
04:37 50.6 °F 46.0 °F 29.93 in Calm     84% 0.00 in 0.00 W/m2
04:42 50.5 °F 45.8 °F 29.93 in Calm     84% 0.00 in 0.00 W/m2
04:47 50.4 °F 45.8 °F 29.93 in Calm     84% 0.00 in 0.00 W/m2
04:52 50.3 °F 45.7 °F 29.93 in Calm     84% 0.00 in 0.00 W/m2
04:57 50.2 °F 45.6 °F 29.93 in Calm     84% 0.00 in 0.00 W/m2
05:02 50.2 °F 45.6 °F 29.93 in Calm     84% 0.00 in 0.00 W/m2
05:07 50.1 °F 45.5 °F 29.93 in Calm     84% 0.00 in 0.00 W/m2
05:12 50.1 °F 45.8 °F 29.93 in Calm     85% 0.00 in 0.00 W/m2
05:17 50.1 °F 45.8 °F 29.93 in Calm     85% 0.00 in 0.00 W/m2
05:22 50.1 °F 45.8 °F 29.93 in Calm     85% 0.00 in 0.00 W/m2
05:27 50.3 °F 46.3 °F 29.93 in Calm     86% 0.00 in 0.00 W/m2
05:32 50.3 °F 46.3 °F 29.93 in Calm     86% 0.00 in 0.00 W/m2
05:37 50.4 °F 46.4 °F 29.93 in Calm     86% 0.00 in 0.00 W/m2
05:42 50.4 °F 46.4 °F 29.93 in Calm     86% 0.00 in 0.00 W/m2
05:47 50.5 °F 46.5 °F 29.93 in Calm     86% 0.00 in 0.00 W/m2
05:52 50.5 °F 46.5 °F 29.94 in Calm     86% 0.00 in 5.00 W/m2
05:57 50.5 °F 46.5 °F 29.94 in Calm     86% 0.00 in 7.00 W/m2
06:02 50.5 °F 46.5 °F 29.94 in Calm     86% 0.00 in 9.00 W/m2
06:07 50.5 °F 46.8 °F 29.94 in Calm     87% 0.00 in 12.00 W/m2
06:12 50.5 °F 46.8 °F 29.94 in Calm     87% 0.00 in 16.00 W/m2
06:17 50.5 °F 46.8 °F 29.94 in Calm     87% 0.00 in 19.00 W/m2
06:22 50.5 °F 46.5 °F 29.94 in Calm     86% 0.00 in 23.00 W/m2
06:27 50.4 °F 46.4 °F 29.94 in Calm     86% 0.00 in 30.00 W/m2
06:32 50.4 °F 46.4 °F 29.94 in Calm     86% 0.00 in 40.00 W/m2
06:37 50.4 °F 46.7 °F 29.94 in Calm     87% 0.00 in 51.00 W/m2
06:43 50.3 °F 46.6 °F 29.94 in Calm     87% 0.00 in 62.00 W/m2
06:48 50.4 °F 46.7 °F 29.94 in Calm     87% 0.00 in 65.00 W/m2
06:53 50.4 °F 46.7 °F 29.94 in Calm     87% 0.00 in 72.00 W/m2
06:58 50.3 °F 46.6 °F 29.94 in Calm   3.0 mph 87% 0.00 in 70.00 W/m2
07:03 50.4 °F 46.7 °F 29.94 in East 1.0 mph 4.0 mph 87% 0.00 in 97.00 W/m2
07:08 50.3 °F 46.3 °F 29.94 in East 1.0 mph 5.0 mph 86% 0.00 in 137.00 W/m2
07:13 50.3 °F 46.3 °F 29.94 in East 4.0 mph 7.0 mph 86% 0.00 in 158.00 W/m2
07:18 50.3 °F 46.3 °F 29.94 in Calm   6.0 mph 86% 0.00 in 181.00 W/m2
07:23 50.3 °F 46.0 °F 29.94 in Calm     85% 0.00 in 204.00 W/m2
07:28 50.1 °F 45.5 °F 29.94 in Calm     84% 0.00 in 213.00 W/m2
07:33 50.2 °F 45.2 °F 29.94 in Calm     83% 0.00 in 236.00 W/m2
07:38 50.4 °F 45.4 °F 29.95 in Calm     83% 0.00 in 265.00 W/m2
07:43 50.5 °F 45.5 °F 29.95 in Calm     83% 0.00 in 265.00 W/m2
07:48 50.7 °F 45.7 °F 29.95 in Calm     83% 0.00 in 283.00 W/m2
07:53 50.8 °F 46.2 °F 29.95 in Calm     84% 0.00 in 311.00 W/m2
07:58 51.0 °F 46.3 °F 29.95 in Calm     84% 0.00 in 329.00 W/m2
08:03 51.2 °F 46.5 °F 29.95 in Calm   5.0 mph 84% 0.00 in 352.00 W/m2
08:08 51.4 °F 46.7 °F 29.95 in NNE 2.0 mph 4.0 mph 84% 0.00 in 369.00 W/m2
08:13 51.7 °F 47.0 °F 29.95 in NNW 2.0 mph 4.0 mph 84% 0.00 in 385.00 W/m2
08:18 52.0 °F 47.3 °F 29.95 in Calm   5.0 mph 84% 0.00 in 403.00 W/m2
08:23 52.5 °F 47.8 °F 29.95 in Calm   5.0 mph 84% 0.00 in 420.00 W/m2
08:28 53.0 °F 48.3 °F 29.95 in Calm   8.0 mph 84% 0.00 in 436.00 W/m2
08:29 53.0 °F 48.3 °F 29.95 in NW 3.0 mph 8.0 mph 84% 0.00 in 436.00 W/m2
08:34 53.4 °F 48.4 °F 29.95 in NW 1.0 mph 6.0 mph 83% 0.00 in 452.00 W/m2
08:39 53.7 °F 48.7 °F 29.96 in NW 1.0 mph 7.0 mph 83% 0.00 in 469.00 W/m2
08:44 53.9 °F 48.5 °F 29.95 in NW 2.0 mph 7.0 mph 82% 0.00 in 485.00 W/m2
08:49 54.1 °F 48.7 °F 29.95 in Calm   8.0 mph 82% 0.00 in 501.00 W/m2
08:54 54.3 °F 48.9 °F 29.95 in Calm   4.0 mph 82% 0.00 in 515.00 W/m2
08:59 54.4 °F 48.7 °F 29.95 in NW 6.0 mph 8.0 mph 81% 0.00 in 533.00 W/m2
09:04 54.6 °F 49.2 °F 29.95 in NNW 8.0 mph 9.0 mph 82% 0.00 in 552.00 W/m2
09:09 54.9 °F 48.9 °F 29.95 in NNW 9.0 mph 9.0 mph 80% 0.00 in 563.00 W/m2
09:14 55.1 °F 49.0 °F 29.95 in Calm   7.0 mph 80% 0.00 in 578.00 W/m2
09:19 55.4 °F 49.0 °F 29.95 in Calm   7.0 mph 79% 0.00 in 594.00 W/m2
09:24 55.6 °F 49.5 °F 29.95 in Calm   7.0 mph 80% 0.00 in 610.00 W/m2
09:29 55.7 °F 49.3 °F 29.95 in Calm   6.0 mph 79% 0.00 in 626.00 W/m2
09:34 55.8 °F 49.4 °F 29.95 in Calm   3.0 mph 79% 0.00 in 643.00 W/m2
09:39 56.0 °F 49.6 °F 29.95 in Calm   5.0 mph 79% 0.00 in 657.00 W/m2
09:44 56.1 °F 49.3 °F 29.95 in Calm     78% 0.00 in 668.00 W/m2
09:45 56.2 °F 49.4 °F 29.95 in Calm     78% 0.00 in 666.00 W/m2
09:50 56.3 °F 49.9 °F 29.95 in Calm   2.0 mph 79% 0.00 in 687.00 W/m2
09:55 56.6 °F 50.2 °F 29.95 in Calm   4.0 mph 79% 0.00 in 684.00 W/m2
10:00 56.9 °F 50.5 °F 29.95 in NW 3.0 mph 4.0 mph 79% 0.00 in 708.00 W/m2
10:05 57.2 °F 50.4 °F 29.95 in Calm   5.0 mph 78% 0.00 in 722.00 W/m2
10:10 57.5 °F 50.7 °F 29.95 in Calm   3.0 mph 78% 0.00 in 735.00 W/m2
10:15 57.9 °F 50.7 °F 29.95 in Calm   6.0 mph 77% 0.00 in 749.00 W/m2
10:20 58.2 °F 51.0 °F 29.95 in NW 2.0 mph 5.0 mph 77% 0.00 in 761.00 W/m2
10:25 58.6 °F 51.1 °F 29.95 in Calm   4.0 mph 76% 0.00 in 763.00 W/m2
10:30 58.9 °F 51.7 °F 29.95 in Calm   3.0 mph 77% 0.00 in 780.00 W/m2
10:35 59.3 °F 51.4 °F 29.95 in NW 4.0 mph 8.0 mph 75% 0.00 in 793.00 W/m2
10:40 59.7 °F 52.1 °F 29.95 in Calm   5.0 mph 76% 0.00 in 803.00 W/m2
10:45 60.2 °F 51.5 °F 29.95 in Calm   5.0 mph 73% 0.00 in 814.00 W/m2
10:50 60.5 °F 52.2 °F 29.95 in Calm   5.0 mph 74% 0.00 in 823.00 W/m2
10:55 60.9 °F 51.8 °F 29.95 in NW 7.0 mph 8.0 mph 72% 0.00 in 831.00 W/m2
11:00 61.1 °F 52.0 °F 29.94 in Calm   9.0 mph 72% 0.00 in 844.00 W/m2
11:05 61.5 °F 52.0 °F 29.95 in Calm   7.0 mph 71% 0.00 in 851.00 W/m2
11:10 61.8 °F 52.3 °F 29.94 in WNW 3.0 mph 7.0 mph 71% 0.00 in 860.00 W/m2
11:15 62.1 °F 51.8 °F 29.94 in NW 4.0 mph 6.0 mph 69% 0.00 in 868.00 W/m2
11:20 62.3 °F 52.0 °F 29.94 in Calm   2.0 mph 69% 0.00 in 875.00 W/m2
11:25 62.5 °F 51.8 °F 29.94 in Calm   5.0 mph 68% 0.00 in 882.00 W/m2
11:30 62.7 °F 52.8 °F 29.93 in Calm   8.0 mph 70% 0.00 in 879.00 W/m2
11:35 63.3 °F 53.4 °F 29.93 in Calm   6.0 mph 70% 0.00 in 893.00 W/m2
11:40 63.8 °F 53.8 °F 29.93 in NW 2.0 mph 9.0 mph 70% 0.00 in 896.00 W/m2
11:45 64.3 °F 53.5 °F 29.93 in WNW 3.0 mph 7.0 mph 68% 0.00 in 907.00 W/m2
11:50 64.5 °F 53.3 °F 29.93 in Calm   7.0 mph 67% 0.00 in 912.00 W/m2
11:55 64.7 °F 53.1 °F 29.93 in WNW 4.0 mph 9.0 mph 66% 0.00 in 914.00 W/m2
12:00 64.9 °F 53.7 °F 29.93 in Calm   7.0 mph 67% 0.00 in 921.00 W/m2
12:05 65.2 °F 53.2 °F 29.93 in WNW 4.0 mph 10.0 mph 65% 0.00 in 928.00 W/m2
12:10 65.4 °F 53.3 °F 29.92 in NW 1.0 mph 6.0 mph 65% 0.00 in 926.00 W/m2
12:16 65.6 °F 54.0 °F 29.92 in WNW 4.0 mph 6.0 mph 66% 0.00 in 932.00 W/m2
12:21 65.8 °F 53.7 °F 29.92 in WNW 7.0 mph 7.0 mph 65% 0.00 in 932.00 W/m2
12:26 66.2 °F 53.7 °F 29.92 in NW 2.0 mph 9.0 mph 64% 0.00 in 935.00 W/m2
12:31 66.5 °F 54.4 °F 29.92 in WSW 1.0 mph 10.0 mph 65% 0.00 in 935.00 W/m2
12:36 66.8 °F 53.8 °F 29.92 in WNW 3.0 mph 6.0 mph 63% 0.00 in 937.00 W/m2
12:41 67.1 °F 54.5 °F 29.92 in WSW 2.0 mph 10.0 mph 64% 0.00 in 940.00 W/m2
12:46 67.4 °F 53.9 °F 29.92 in WNW 6.0 mph 9.0 mph 62% 0.00 in 939.00 W/m2
12:51 67.6 °F 53.7 °F 29.92 in Calm   9.0 mph 61% 0.00 in 942.00 W/m2
12:56 67.5 °F 54.0 °F 29.92 in Calm   11.0 mph 62% 0.00 in 940.00 W/m2
13:01 67.6 °F 53.7 °F 29.92 in Calm   10.0 mph 61% 0.00 in 940.00 W/m2
13:06 67.7 °F 54.2 °F 29.92 in West 5.0 mph 7.0 mph 62% 0.00 in 940.00 W/m2
13:11 68.2 °F 54.7 °F 29.92 in WSW 6.0 mph 9.0 mph 62% 0.00 in 940.00 W/m2
13:16 68.9 °F 54.9 °F 29.92 in NW 8.0 mph 10.0 mph 61% 0.00 in 935.00 W/m2
13:21 69.3 °F 54.4 °F 29.92 in NNW 4.0 mph 8.0 mph 59% 0.00 in 935.00 W/m2
13:26 69.0 °F 54.5 °F 29.92 in Calm   9.0 mph 60% 0.00 in 930.00 W/m2
13:31 68.9 °F 54.9 °F 29.91 in WNW 3.0 mph 7.0 mph 61% 0.00 in 928.00 W/m2
13:36 68.7 °F 54.3 °F 29.91 in Calm     60% 0.00 in 928.00 W/m2
13:41 68.8 °F 54.8 °F 29.91 in WNW 4.0 mph 7.0 mph 61% 0.00 in 918.00 W/m2
13:46 69.0 °F 54.1 °F 29.91 in Calm   10.0 mph 59% 0.00 in 923.00 W/m2
13:51 69.0 °F 54.1 °F 29.91 in NW 9.0 mph 9.0 mph 59% 0.00 in 918.00 W/m2
13:56 69.1 °F 54.7 °F 29.91 in NNW 2.0 mph 7.0 mph 60% 0.00 in 912.00 W/m2
14:01 68.9 °F 54.5 °F 29.91 in NW 6.0 mph 7.0 mph 60% 0.00 in 902.00 W/m2
14:06 68.7 °F 54.3 °F 29.91 in Calm     60% 0.00 in 904.00 W/m2
14:11 68.7 °F 54.3 °F 29.91 in Calm     60% 0.00 in 895.00 W/m2
14:16 68.8 °F 54.8 °F 29.91 in Calm     61% 0.00 in 886.00 W/m2
14:21 68.8 °F 53.9 °F 29.91 in Calm   5.0 mph 59% 0.00 in 877.00 W/m2
14:26 68.6 °F 54.2 °F 29.91 in Calm     60% 0.00 in 872.00 W/m2
14:31 68.6 °F 54.2 °F 29.91 in NW 6.0 mph 7.0 mph 60% 0.00 in 863.00 W/m2
14:36 68.8 °F 53.9 °F 29.91 in WNW 2.0 mph 4.0 mph 59% 0.00 in 856.00 W/m2
14:41 68.9 °F 53.5 °F 29.91 in Calm   1.0 mph 58% 0.00 in 851.00 W/m2
14:46 68.8 °F 53.4 °F 29.91 in West 8.0 mph 8.0 mph 58% 0.00 in 838.00 W/m2
14:51 68.9 °F 53.1 °F 29.91 in Calm     57% 0.00 in 830.00 W/m2
14:56 68.8 °F 52.5 °F 29.90 in Calm   3.0 mph 56% 0.00 in 823.00 W/m2
15:01 68.5 °F 52.2 °F 29.90 in WNW 2.0 mph 7.0 mph 56% 0.00 in 814.00 W/m2
15:06 68.3 °F 52.0 °F 29.90 in Calm   5.0 mph 56% 0.00 in 807.00 W/m2
15:11 68.2 °F 51.4 °F 29.90 in West 5.0 mph 5.0 mph 55% 0.00 in 793.00 W/m2
15:16 68.3 °F 51.5 °F 29.90 in Calm     55% 0.00 in 784.00 W/m2
15:21 68.4 °F 51.6 °F 29.90 in Calm   3.0 mph 55% 0.00 in 775.00 W/m2
15:22 68.4 °F 51.6 °F 29.90 in NW 2.0 mph 7.0 mph 55% 0.00 in 773.00 W/m2
15:27 68.5 °F 51.7 °F 29.89 in WNW 3.0 mph 6.0 mph 55% 0.00 in 763.00 W/m2
15:32 68.6 °F 52.3 °F 29.89 in Calm   6.0 mph 56% 0.00 in 751.00 W/m2
15:37 68.7 °F 52.4 °F 29.90 in WSW 9.0 mph 9.0 mph 56% 0.00 in 738.00 W/m2
15:42 68.9 °F 53.1 °F 29.89 in Calm   6.0 mph 57% 0.00 in 726.00 W/m2
15:47 69.1 °F 52.8 °F 29.89 in NW 4.0 mph 6.0 mph 56% 0.00 in 712.00 W/m2
15:52 69.1 °F 52.3 °F 29.89 in WNW 5.0 mph 5.0 mph 55% 0.00 in 703.00 W/m2
15:57 69.2 °F 52.4 °F 29.89 in Calm   6.0 mph 55% 0.00 in 689.00 W/m2
16:02 69.2 °F 52.4 °F 29.89 in Calm     55% 0.00 in 675.00 W/m2
16:07 69.2 °F 52.8 °F 29.89 in Calm   9.0 mph 56% 0.00 in 661.00 W/m2
16:12 69.3 °F 52.5 °F 29.89 in Calm   3.0 mph 55% 0.00 in 645.00 W/m2
16:17 69.3 °F 53.4 °F 29.89 in Calm   7.0 mph 57% 0.00 in 633.00 W/m2
16:22 69.4 °F 53.0 °F 29.89 in NW 2.0 mph 5.0 mph 56% 0.00 in 621.00 W/m2
16:27 69.5 °F 53.1 °F 29.89 in Calm   7.0 mph 56% 0.00 in 605.00 W/m2
16:32 69.5 °F 53.6 °F 29.89 in WNW 2.0 mph 5.0 mph 57% 0.00 in 591.00 W/m2
16:37 69.5 °F 52.6 °F 29.89 in Calm   1.0 mph 55% 0.00 in 575.00 W/m2
16:42 69.6 °F 53.2 °F 29.89 in West 2.0 mph 3.0 mph 56% 0.00 in 561.00 W/m2
16:47 69.7 °F 53.8 °F 29.89 in Calm   6.0 mph 57% 0.00 in 545.00 W/m2
16:52 69.7 °F 52.8 °F 29.89 in Calm   5.0 mph 55% 0.00 in 534.00 W/m2
16:57 69.6 °F 52.7 °F 29.89 in Calm     55% 0.00 in 513.00 W/m2
17:02 69.6 °F 53.7 °F 29.89 in Calm   3.0 mph 57% 0.00 in 497.00 W/m2
17:07 69.6 °F 52.7 °F 29.89 in West 8.0 mph 8.0 mph 55% 0.00 in 480.00 W/m2
17:12 69.6 °F 52.7 °F 29.88 in Calm   7.0 mph 55% 0.00 in 468.00 W/m2
17:17 69.5 °F 52.6 °F 29.88 in Calm   4.0 mph 55% 0.00 in 450.00 W/m2
17:22 69.5 °F 52.6 °F 29.88 in NW 3.0 mph 6.0 mph 55% 0.00 in 432.00 W/m2
17:27 69.4 °F 52.5 °F 29.88 in Calm     55% 0.00 in 418.00 W/m2
17:32 69.3 °F 52.0 °F 29.88 in Calm   5.0 mph 54% 0.00 in 397.00 W/m2
17:37 69.2 °F 52.4 °F 29.88 in Calm   3.0 mph 55% 0.00 in 385.00 W/m2
17:42 69.2 °F 52.8 °F 29.88 in NW 4.0 mph 4.0 mph 56% 0.00 in 367.00 W/m2
17:47 69.2 °F 52.4 °F 29.88 in Calm     55% 0.00 in 353.00 W/m2
17:52 69.1 °F 52.3 °F 29.87 in WNW 2.0 mph 5.0 mph 55% 0.00 in 341.00 W/m2
17:57 69.1 °F 53.2 °F 29.87 in West 3.0 mph 6.0 mph 57% 0.00 in 325.00 W/m2
18:02 69.0 °F 52.7 °F 29.87 in WNW 1.0 mph 1.0 mph 56% 0.00 in 306.00 W/m2
18:07 69.0 °F 52.7 °F 29.87 in Calm     56% 0.00 in 288.00 W/m2
18:12 69.0 °F 53.2 °F 29.87 in Calm   1.0 mph 57% 0.00 in 272.00 W/m2
18:17 68.9 °F 52.1 °F 29.87 in Calm   2.0 mph 55% 0.00 in 255.00 W/m2
18:23 68.8 °F 53.0 °F 29.87 in Calm   4.0 mph 57% 0.00 in 237.00 W/m2
18:28 68.8 °F 53.0 °F 29.87 in Calm     57% 0.00 in 225.00 W/m2
18:33 68.7 °F 53.8 °F 29.87 in Calm   5.0 mph 59% 0.00 in 211.00 W/m2
18:38 68.6 °F 54.6 °F 29.87 in Calm   4.0 mph 61% 0.00 in 197.00 W/m2
18:43 68.4 °F 53.5 °F 29.87 in WNW 1.0 mph 5.0 mph 59% 0.00 in 179.00 W/m2
18:48 68.3 °F 54.8 °F 29.87 in Calm     62% 0.00 in 165.00 W/m2
18:53 68.1 °F 54.2 °F 29.86 in Calm     61% 0.00 in 146.00 W/m2
18:58 68.0 °F 55.0 °F 29.86 in Calm     63% 0.00 in 123.00 W/m2
19:03 67.8 °F 54.3 °F 29.87 in Calm     62% 0.00 in 98.00 W/m2
19:08 67.6 °F 55.4 °F 29.87 in NW 3.0 mph 3.0 mph 65% 0.00 in 76.00 W/m2
19:13 67.4 °F 54.8 °F 29.87 in Calm     64% 0.00 in 69.00 W/m2
19:18 67.2 °F 55.0 °F 29.87 in Calm     65% 0.00 in 53.00 W/m2
19:23 67.0 °F 55.3 °F 29.87 in Calm     66% 0.00 in 35.00 W/m2
19:28 66.8 °F 55.1 °F 29.87 in Calm     66% 0.00 in 26.00 W/m2
19:33 66.6 °F 55.3 °F 29.88 in Calm     67% 0.00 in 23.00 W/m2
19:38 66.2 °F 54.9 °F 29.88 in Calm     67% 0.00 in 21.00 W/m2
19:43 65.8 °F 54.5 °F 29.88 in Calm     67% 0.00 in 19.00 W/m2
19:48 65.4 °F 54.2 °F 29.88 in Calm     67% 0.00 in 16.00 W/m2
19:53 65.2 °F 54.0 °F 29.88 in Calm     67% 0.00 in 11.00 W/m2
19:58 64.9 °F 54.1 °F 29.88 in Calm     68% 0.00 in 7.00 W/m2
20:03 64.7 °F 53.9 °F 29.88 in Calm     68% 0.00 in 7.00 W/m2
20:08 64.5 °F 53.7 °F 29.88 in Calm     68% 0.00 in 7.00 W/m2
20:13 64.2 °F 53.8 °F 29.88 in Calm     69% 0.00 in 0.00 W/m2
20:18 63.8 °F 53.8 °F 29.88 in Calm     70% 0.00 in 0.00 W/m2
20:23 63.4 °F 53.5 °F 29.88 in Calm     70% 0.00 in 0.00 W/m2
20:28 63.1 °F 53.2 °F 29.88 in Calm     70% 0.00 in 0.00 W/m2
20:33 62.8 °F 52.9 °F 29.89 in Calm     70% 0.00 in 0.00 W/m2
20:38 62.5 °F 52.6 °F 29.89 in Calm     70% 0.00 in 0.00 W/m2
20:43 62.2 °F 51.9 °F 29.89 in Calm     69% 0.00 in 0.00 W/m2
20:48 62.0 °F 52.1 °F 29.88 in Calm     70% 0.00 in 0.00 W/m2
20:54 61.7 °F 51.8 °F 29.88 in Calm     70% 0.00 in 0.00 W/m2
20:59 61.4 °F 51.2 °F 29.88 in Calm     69% 0.00 in 0.00 W/m2
21:04 61.2 °F 51.0 °F 29.88 in Calm     69% 0.00 in 0.00 W/m2
21:09 61.0 °F 50.4 °F 29.89 in Calm     68% 0.00 in 0.00 W/m2
21:14 60.8 °F 50.6 °F 29.89 in Calm     69% 0.00 in 0.00 W/m2
21:19 60.5 °F 49.9 °F 29.89 in Calm     68% 0.00 in 0.00 W/m2
21:24 60.2 °F 49.2 °F 29.90 in Calm     67% 0.00 in 0.00 W/m2
21:29 60.1 °F 49.5 °F 29.90 in Calm     68% 0.00 in 0.00 W/m2
21:34 59.9 °F 49.7 °F 29.90 in Calm     69% 0.00 in 0.00 W/m2
21:39 59.8 °F 49.2 °F 29.90 in Calm     68% 0.00 in 0.00 W/m2
21:40 59.8 °F 49.2 °F 29.90 in Calm     68% 0.00 in 0.00 W/m2
21:45 59.7 °F 49.5 °F 29.90 in Calm     69% 0.00 in 0.00 W/m2
21:50 59.5 °F 48.9 °F 29.90 in Calm     68% 0.00 in 0.00 W/m2
21:55 59.4 °F 49.2 °F 29.90 in Calm     69% 0.00 in 0.00 W/m2
22:00 59.3 °F 48.8 °F 29.90 in Calm     68% 0.00 in 0.00 W/m2
22:05 59.2 °F 48.7 °F 29.90 in Calm     68% 0.00 in 0.00 W/m2
22:10 59.1 °F 48.6 °F 29.90 in Calm     68% 0.00 in 0.00 W/m2
22:15 59.1 °F 49.0 °F 29.90 in Calm     69% 0.00 in 0.00 W/m2
22:20 59.0 °F 48.5 °F 29.90 in Calm     68% 0.00 in 0.00 W/m2
22:25 58.9 °F 48.0 °F 29.90 in Calm     67% 0.00 in 0.00 W/m2
22:30 58.9 °F 48.8 °F 29.91 in Calm   2.0 mph 69% 0.00 in 0.00 W/m2
22:35 58.8 °F 48.3 °F 29.90 in Calm   4.0 mph 68% 0.00 in 0.00 W/m2
22:40 58.8 °F 48.7 °F 29.90 in Calm   8.0 mph 69% 0.00 in 0.00 W/m2
22:45 58.7 °F 49.0 °F 29.91 in Calm   6.0 mph 70% 0.00 in 0.00 W/m2
22:50 58.8 °F 49.8 °F 29.91 in Calm   6.0 mph 72% 0.00 in 0.00 W/m2
22:55 58.8 °F 50.5 °F 29.91 in ESE 4.0 mph 7.0 mph 74% 0.00 in 0.00 W/m2
23:00 58.8 °F 50.5 °F 29.91 in ESE 5.0 mph 7.0 mph 74% 0.00 in 0.00 W/m2
23:05 58.8 °F 50.9 °F 29.91 in ESE 1.0 mph 6.0 mph 75% 0.00 in 0.00 W/m2
23:10 58.8 °F 51.3 °F 29.91 in Calm   7.0 mph 76% 0.00 in 0.00 W/m2
23:15 58.8 °F 51.6 °F 29.90 in Calm   6.0 mph 77% 0.00 in 0.00 W/m2
23:20 58.8 °F 51.6 °F 29.91 in ESE 2.0 mph 6.0 mph 77% 0.00 in 0.00 W/m2
23:25 58.8 °F 51.6 °F 29.90 in ESE 2.0 mph 9.0 mph 77% 0.00 in 0.00 W/m2
23:30 58.8 °F 51.6 °F 29.90 in Calm   9.0 mph 77% 0.00 in 0.00 W/m2
23:35 58.8 °F 51.6 °F 29.90 in ESE 5.0 mph 11.0 mph 77% 0.00 in 0.00 W/m2
23:40 58.8 °F 51.6 °F 29.90 in East 2.0 mph 7.0 mph 77% 0.00 in 0.00 W/m2
23:45 58.7 °F 51.5 °F 29.89 in ESE 1.0 mph 8.0 mph 77% 0.00 in 0.00 W/m2
23:50 58.8 °F 51.6 °F 29.90 in East 2.0 mph 11.0 mph 77% 0.00 in 0.00 W/m2
23:56 58.8 °F 52.0 °F 29.90 in East 5.0 mph 9.0 mph 78% 0.00 in 0.00 W/m2
Foresthill Weather
 WU-history PHP script courtesy of   Juneau County Weather.
powered by Cumulus v1.9.3 (1059)
Ambient Weather VWS v14.00
Top Contact Website Map Copyright © 2007 - 2018 Foresthillweather.com Never base important decisions on this or any weather information obtained from the Internet